Showing default

CENTISPACE-1 S15, 62584

Orbit data source: Space-Track

CENTISPACE-1 S15, 62584 is a payload satellite owned by Centispace (CN) in LEO that was launched on Mon, 13 Jan 2025 UTC via a JIELONG-3 launch vehicle from the Yellow Sea Launch Area, China (YSLA). Payload-class satellites include a variety of spacecraft equipped with specific instruments for various scientific and technological missions. These include communications satellites like Starlink; space stations such as the ISS; scientific satellites like the Hubble; Earth observation satellites from companies like Planet Labs, Umbra, and HawkEye 360; GPS; miniature CubeSats for education and research; and military/defense satellites.

Loading next visibility...
Identifier
62584, 2025-007K
Orbit
LEO
Last TLE update
8 hours ago
Origin
Manufacturer
HITSAT
Mission
Operational Commercial Nav/Com
Bus & Motor
WK01H, Unknown motor
Mass
140 kg wet, 140 kg dry
Launch date (UTC)
2025-01-13 (6 months ago)
Launch vehicle
JIELONG-3
Launch site
Yellow Sea Launch Area, China (YSLA)
Object type
Payload
Rocket body
Debris
Shape & HBR
Box + 2 Pan, 2 m
Radar Cross Section
0.833 m², Large (>1 m²)

Expand to show TLE details & history

TLE from 8 hours ago
0 CENTISPACE-1 S15
1 62584U 25007K   25183.93633165  .00000987  00000-0  20587-3 0  9993
2 62584  54.9815 152.4887 0012077 302.3668  57.6158 14.67779796 25180
Epoch: 2025-07-02T22:28Z
TLE epoch observation values (Epoch: 2025-07-02T22:28:19.054Z)
Latitude
-0.00008°
Longitude
-105.80103°
Altitude
664.678 km
Speed
7.528 km/s
True Right ascension
10h 09m 57s
True Declination
0° 00' 00"
Sunlit
Object was in daylight at epoch
Visualization orbit readout
Latitude
6.381°
Longitude
-102.71065°
Altitude
664.98 km
Speed
7.528 km/s
Apparent Right ascension
08h 47m 11s
Apparent Declination
-17° 33' 14"
Sunlit
Object is in daylight
Visualization observer readout
Local Sidereal Time
18:26:28
Azimuth
296.065° NW
Elevation
-52.299°
Doppler factor
1
Orbital elements
Apogee altitude
676.641 km
Perigee altitude
659.621 km
Semi-major axis
7,046.268 km
Eccentricity
0.00121
Inclination
54.9815°
RAAN
152.4887°
Arg. of periapsis
302.3668°
True anomaly
Unknown
Mean anomaly
57.6158°
Eccentric anomaly
Unknown
Mean motion
3.66948 °/min
Orbital period
98.11 mins
BSTAR
0.00020587
Loading maneuver chart data...
Loading SW <> Apogee altitude chart data...
Loading historical data...
Loading historical data...
Loading historical data...
Loading historical data...
Loading historical data...
Loading historical data...
Loading historical data...

CENTISPACE-1 S15 Visibility forecast

Observer location: undefined°, undefined°

Span
Click to sort rows by Start time (UTC) header in descending order
Start Az.
Max El. time (UTC)
Max El. Az.
Max El.
End time (UTC)
End Az.
8 mins2025-07-03 07:07:45.211Z324.339° NNW2025-07-03 07:11:45.211Z30.047° NE35.596°2025-07-03 07:15:45.211Z106.458° ESE
7 mins2025-07-03 08:50:45.211Z285.449° WNW2025-07-03 08:53:45.211Z234.219° WSW26.894°2025-07-03 08:57:45.211Z173.805° S
5 mins2025-07-03 23:08:45.211Z156.55° SSE2025-07-03 23:10:45.211Z123.161° SE20.532°2025-07-03 23:13:45.211Z79.384° E
8 mins2025-07-04 00:48:45.211Z243.712° WSW2025-07-04 00:52:45.211Z343.762° N40.14°2025-07-04 00:56:45.211Z40.228° NE
4 mins2025-07-04 02:33:45.211Z317.653° NNW2025-07-04 02:35:45.211Z348.927° N17.258°2025-07-04 02:37:45.211Z16.63° NNE
6 mins2025-07-04 05:59:45.211Z341.172° N2025-07-04 06:02:45.211Z30.922° NE22.994°2025-07-04 06:05:45.211Z76.224° E
|